Location: Champs
(48.8539°N, 2.6040°E)
Time: 19:03:47
(UTC+00:00)

ATLAS CENTAUR R/B - Pass Details

Date: 02 June 2022
Orbit: 443 x 688 km, 64.6° (Epoch: 07 June)

Event Time Altitude Azimuth Distance (km) Brightness Sun altitude
Rises 20:50:33 0° 320° (NW) 3,062 7.7 -8.7°
Reaches altitude 10° 20:52:56 10° 321° (NW) 2,133 6.0 -8.9°
Maximum altitude 20:57:50 89° 51° (NE) 671 1.7 -9.4°
Enters shadow 21:01:57 13° 142° (SE) 1,821 3.3 -9.9°
